[[{"header":{"parameterUnit":"m.s-1","parameterCategory":1,"la1":30.2991,"la2":30.254,"lo1":-89.0895,"lo2":-89.0444,"dy":0.0017,"dx":0.0017,"nx":28,"ny":28,"refTime":"2024-02-23T09:00:00:Z","depth":0,"parameterNumber":2,"parameterNumberName":"U-component_of_WINDS"},"data":[0,0,0,0,0,0,0,0,0,0,0,0,0,0,0,0,0,0,0,0,0,0,0,0,0,0,0,0,0,0,0,0,0,0,0,0,0,0,0,0,0,0,0,0,0,0,0,0,0,0,0,0,0,0,0,0,0,0,1.6273,1.6274,0,1.6331,1.6332,1.6332,1.6326,1.6325,1.6324,1.6323,1.6383,1.6386,1.6388,0,0,0,0,0,0,0,0,0,0,0,0,0,1.6158,1.616,1.6273,1.6274,1.6275,1.6331,1.6332,1.6333,1.6326,1.6325,1.6324,1.6323,1.6382,1.6385,1.6388,0,0,0,0,0,0,0,0,0,0,0,0,0,1.6211,1.6161,1.6273,1.6278,1.6279,1.6331,1.6332,1.6333,1.6327,1.6325,1.6324,1.6322,1.6382,1.6385,1.6389,1.6439,0,0,1.64,1.6402,0,0,0,0,0,0,0,0,1.6208,1.6215,1.6277,1.6278,1.6279,1.632,1.6313,1.6368,1.6327,1.6309,1.6323,1.6322,1.6363,1.6368,1.6382,1.6442,1.6444,1.64,1.6403,1.6404,1.6405,0,0,0,0,0,0,0,1.6205,1.6213,1.6296,1.6278,1.6279,1.6278,1.6284,1.6324,1.6343,1.631,1.631,1.6317,1.6364,1.6379,1.6384,1.6445,1.64,1.6403,1.6406,1.6407,1.655,1.6552,0,0,0,0,0,0,1.62,1.621,1.6294,1.6298,1.624,1.6281,1.6288,1.6308,1.6343,1.6346,1.6318,1.6316,1.6373,1.6379,1.6386,1.6448,1.6404,1.6408,1.641,1.6549,1.6551,1.6552,0,0,0,0,0,0,1.6197,1.6207,1.6292,1.6254,1.6265,1.6285,1.6308,1.631,1.6325,1.6348,1.6352,1.633,1.6372,1.6381,1.6426,1.645,1.6409,1.6413,1.6547,1.6549,1.6552,1.6572,0,0,0,0,0,0,1.6194,1.6206,1.6225,1.6254,1.6267,1.6331,1.6309,1.6312,1.6332,1.633,1.636,1.6364,1.6372,1.6421,1.643,1.6454,1.6415,1.6545,1.6548,1.6551,1.6569,1.6575,1.6579,0,0,0,0,0,1.619,1.6229,1.6226,1.6236,1.6291,1.6332,1.6339,1.6347,1.6333,1.6353,1.6368,1.6363,1.6446,1.6425,1.6436,1.6461,1.6543,1.6547,1.6551,1.6567,1.6574,1.6579,0,0,0,0,0,0,1.6202,1.6232,1.623,1.6279,1.6303,1.6331,1.6356,1.6354,1.6383,1.638,1.6389,1.6396,1.6442,1.6456,1.6433,1.6513,1.6493,1.6499,1.6502,1.6508,1.6513,1.6509,1.6418,0,0,0,0,0,1.621,1.6241,1.6266,1.6307,1.6319,1.6336,1.6354,1.6358,1.6383,1.6394,1.6412,1.6437,1.6468,1.6489,1.6519,1.6571,1.6578,1.6594,1.6599,1.6603,1.6608,1.6638,1.6646,1.6564,1.6564,1.6564,0,0,1.6228,1.6248,1.6267,1.631,1.6329,1.6362,1.6344,1.6379,1.6403,1.6399,1.6443,1.6458,1.6486,1.6535,1.6558,1.6548,1.6632,1.6608,1.6611,1.6614,1.6643,1.665,1.6657,1.6567,1.6566,1.6566,0,0,1.6276,1.6295,1.6332,1.6351,1.638,1.6391,1.64,1.6428,1.6438,1.6482,1.648,1.6509,1.6563,1.6584,1.6601,1.6659,1.6656,1.6668,1.6695,1.6724,1.6731,1.6736,1.6758,1.6765,1.6673,1.6673,1.6673,0,1.6295,1.6343,1.6351,1.6386,1.6406,1.6403,1.6441,1.646,1.6497,1.6511,1.65,1.6568,1.6587,1.6642,1.6656,1.667,1.6681,1.6665,1.6729,1.6735,1.674,1.6761,1.6769,1.6675,1.6675,1.6675,1.6674,0,1.6365,1.6398,1.6425,1.6461,1.6483,1.652,1.6533,1.6555,1.6558,1.657,1.6616,1.6638,1.6674,1.6687,1.669,1.6742,1.6736,1.6727,1.6707,1.6749,1.6769,1.6777,1.6677,1.6676,1.6676,1.6676,0,0,1.6423,1.6463,1.6473,1.649,1.6522,1.6549,1.6585,1.662,1.6639,1.6665,1.6696,1.6743,1.6735,1.6755,1.676,1.6785,1.6831,1.6773,1.6774,1.6784,1.6891,1.6898,1.6907,1.6828,1.683,1.6831,1.6889,0,1.6475,1.654,1.6548,1.6606,1.6638,1.6636,1.6668,1.6692,1.6704,1.6733,1.6747,1.678,1.6767,1.6779,1.6804,1.682,1.6852,1.6815,1.6859,1.686,1.6852,1.6918,1.6925,1.6979,1.6897,1.6898,1.6899,0,1.6545,1.6574,1.6635,1.6663,1.6677,1.6705,1.6738,1.6766,1.6793,1.68,1.6823,1.6825,1.6864,1.6842,1.6896,1.6871,1.6889,1.69,1.6902,1.6907,1.6883,1.6925,1.6996,1.7004,1.6911,1.691,1.6909,0,1.6583,1.6636,1.668,1.6694,1.6728,1.6749,1.6764,1.679,1.681,1.6839,1.6853,1.6886,1.6904,1.693,1.6941,1.6924,1.6995,1.6974,1.7003,1.7003,1.7018,1.7017,1.7094,1.7029,1.7029,1.7028,1.7028,0,1.6641,1.6679,1.6697,1.6724,1.6766,1.6775,1.6817,1.6832,1.6855,1.6885,1.6886,1.6914,1.6927,1.6957,1.6966,1.701,1.7018,1.7026,1.7028,1.7027,1.7026,1.7039,1.7036,1.7031,1.703,1.703,1.7029,0,1.669,1.6704,1.6751,1.678,1.6788,1.6818,1.6843,1.687,1.6882,1.692,1.693,1.6949,1.6985,1.6999,1.7043,1.7049,1.71,1.7099,1.7091,1.7092,1.7121,1.7118,1.7209,1.7222,1.7148,1.7148,1.7149,0,1.6727,1.6756,1.6788,1.6808,1.6824,1.6857,1.6878,1.6888,1.691,1.6944,1.6967,1.7003,1.7032,1.709,1.7109,1.7143,1.7143,1.7172,1.7148,1.7146,1.7144,1.7143,1.7146,1.7177,1.7178,1.7178,1.7179,0,1.6791,1.6797,1.6827,1.686,1.6885,1.6912,1.6938,1.6954,1.6969,1.6994,1.7031,1.7054,1.7099,1.7135,1.717,1.7187,1.7186,1.7186,1.7195,1.7194,1.7189,1.7193,1.7105,1.7184,1.7184,1.7183,1.7183,1.7183,1.6836,1.6862,1.6889,1.6923,1.6943,1.6968,1.6994,1.701,1.7041,1.7079,1.7083,1.7123,1.715,1.7197,1.7215,1.7247,1.7239,1.7252,1.7255,1.7258,1.7261,1.7183,1.7254,1.7253,1.7253,1.7253,1.7253,0,1.6901,1.6918,1.695,1.6986,1.7013,1.7009,1.7038,1.7061,1.7096,1.7121,1.715,1.7193,1.7229,1.725,1.7286,1.7307,1.7308,1.7316,1.7315,1.7319,1.7265,1.7254,1.7316,1.7315,1.7315,1.7315,1.7315,1.7315,1.6938,1.6982,1.6991,1.7046,1.7063,1.7102,1.7119,1.7142,1.7162,1.721,1.7239,1.7253,1.7277,1.7315,1.7347,1.7353,1.7366,1.7376,1.7381,1.733,1.7323,1.7317,1.7307,1.7378,1.7378,1.7432,1.7433,1.7433]},{"header":{"parameterUnit":"m.s-1","parameterCategory":1,"la1":30.2991,"la2":30.254,"lo1":-89.0895,"lo2":-89.0444,"dy":0.0017,"dx":0.0017,"nx":28,"ny":28,"refTime":"2024-02-23T09:00:00:Z","depth":0,"parameterNumber":3,"parameterNumberName":"V-component_of_WINDS"},"data":[0,0,0,0,0,0,0,0,0,0,0,0,0,0,0,0,0,0,0,0,0,0,0,0,0,0,0,0,0,0,0,0,0,0,0,0,0,0,0,0,0,0,0,0,0,0,0,0,0,0,0,0,0,0,0,0,0,0,-2.1447,-2.1447,0,-2.1487,-2.1488,-2.1488,-2.1495,-2.1495,-2.1495,-2.1494,-2.1535,-2.1536,-2.1538,0,0,0,0,0,0,0,0,0,0,0,0,0,-2.1374,-2.1375,-2.1447,-2.1447,-2.1448,-2.1487,-2.1488,-2.1489,-2.1495,-2.1495,-2.1494,-2.1494,-2.1534,-2.1536,-2.1538,0,0,0,0,0,0,0,0,0,0,0,0,0,-2.1409,-2.1376,-2.1447,-2.1456,-2.1457,-2.1487,-2.1488,-2.1489,-2.1495,-2.1495,-2.1494,-2.1494,-2.1534,-2.1536,-2.1538,-2.1561,0,0,-2.1544,-2.1545,0,0,0,0,0,0,0,0,-2.1407,-2.1412,-2.1454,-2.1455,-2.1457,-2.1486,-2.1477,-2.1513,-2.1496,-2.1481,-2.1494,-2.1494,-2.1519,-2.1522,-2.1531,-2.1563,-2.1565,-2.1545,-2.1546,-2.1547,-2.1547,0,0,0,0,0,0,0,-2.1405,-2.141,-2.1463,-2.1455,-2.1456,-2.1458,-2.1462,-2.1484,-2.1502,-2.1482,-2.1483,-2.1487,-2.1519,-2.1529,-2.1532,-2.1566,-2.1544,-2.1546,-2.1548,-2.1548,-2.162,-2.162,0,0,0,0,0,0,-2.1401,-2.1408,-2.1461,-2.1464,-2.143,-2.146,-2.1465,-2.1477,-2.1502,-2.1505,-2.1488,-2.1488,-2.1526,-2.1529,-2.1533,-2.1563,-2.1547,-2.1549,-2.155,-2.1619,-2.162,-2.1621,0,0,0,0,0,0,-2.1399,-2.1406,-2.146,-2.1436,-2.1443,-2.1461,-2.1475,-2.1478,-2.1487,-2.1506,-2.151,-2.1494,-2.1525,-2.153,-2.1555,-2.1564,-2.155,-2.1552,-2.1619,-2.1619,-2.162,-2.1621,0,0,0,0,0,0,-2.1397,-2.1405,-2.1414,-2.1436,-2.1445,-2.148,-2.1476,-2.1479,-2.1491,-2.1491,-2.1513,-2.1516,-2.1525,-2.1551,-2.1557,-2.1567,-2.1553,-2.1618,-2.1619,-2.162,-2.162,-2.1622,-2.1623,0,0,0,0,0,-2.1394,-2.1412,-2.1414,-2.1421,-2.1456,-2.1481,-2.1485,-2.1496,-2.1492,-2.1501,-2.1514,-2.1516,-2.1562,-2.1554,-2.156,-2.1571,-2.1617,-2.1619,-2.162,-2.162,-2.1622,-2.1623,0,0,0,0,0,0,-2.1389,-2.1415,-2.1418,-2.1443,-2.146,-2.1482,-2.1494,-2.1498,-2.1515,-2.1515,-2.1526,-2.1531,-2.1555,-2.1565,-2.1555,-2.1595,-2.1589,-2.1592,-2.1587,-2.1589,-2.1591,-2.1587,-2.1555,0,0,0,0,0,-2.1391,-2.141,-2.1431,-2.1451,-2.146,-2.1475,-2.1486,-2.1493,-2.1511,-2.1518,-2.1532,-2.1548,-2.1567,-2.1579,-2.1597,-2.1622,-2.1627,-2.1633,-2.1634,-2.1636,-2.1637,-2.1652,-2.1655,-2.1625,-2.1625,-2.1625,0,0,-2.1395,-2.1412,-2.1422,-2.1451,-2.1464,-2.1483,-2.1481,-2.15,-2.1514,-2.152,-2.1544,-2.1555,-2.1575,-2.16,-2.1611,-2.1609,-2.1647,-2.1637,-2.1638,-2.1639,-2.1654,-2.1657,-2.1659,-2.1626,-2.1626,-2.1626,0,0,-2.1412,-2.1426,-2.1445,-2.1459,-2.148,-2.1491,-2.1495,-2.1517,-2.1525,-2.1549,-2.1554,-2.1571,-2.1603,-2.1616,-2.1628,-2.1651,-2.1654,-2.1657,-2.1664,-2.1679,-2.1681,-2.1683,-2.1691,-2.1694,-2.1659,-2.1659,-2.1659,0,-2.1414,-2.1442,-2.1454,-2.1473,-2.1486,-2.1493,-2.1512,-2.1525,-2.1551,-2.1559,-2.1557,-2.1597,-2.1611,-2.164,-2.1645,-2.1654,-2.166,-2.1654,-2.168,-2.1682,-2.1684,-2.1692,-2.1695,-2.1659,-2.1659,-2.1659,-2.1659,0,-2.1444,-2.1463,-2.1476,-2.1501,-2.1515,-2.1534,-2.1549,-2.1562,-2.1568,-2.1579,-2.1604,-2.1621,-2.1643,-2.165,-2.1656,-2.168,-2.1678,-2.1677,-2.1672,-2.1687,-2.1695,-2.1698,-2.1659,-2.1659,-2.1659,-2.1659,0,0,-2.1457,-2.1489,-2.1494,-2.1506,-2.153,-2.1545,-2.1565,-2.1587,-2.1598,-2.1616,-2.1633,-2.166,-2.166,-2.1673,-2.1681,-2.1693,-2.1711,-2.1691,-2.1692,-2.1694,-2.1739,-2.1739,-2.1742,-2.1713,-2.1714,-2.1714,-2.1737,0,-2.1476,-2.1511,-2.1523,-2.1553,-2.1571,-2.1579,-2.1597,-2.1614,-2.1625,-2.1642,-2.1654,-2.1673,-2.1672,-2.168,-2.1693,-2.1706,-2.172,-2.1705,-2.1729,-2.173,-2.1723,-2.1746,-2.1746,-2.1766,-2.174,-2.1741,-2.1741,0,-2.1502,-2.1522,-2.1553,-2.1576,-2.1584,-2.16,-2.1621,-2.1638,-2.1657,-2.1665,-2.168,-2.1687,-2.1708,-2.1702,-2.1731,-2.1721,-2.1732,-2.174,-2.1741,-2.1743,-2.1736,-2.1748,-2.1773,-2.1776,-2.1746,-2.1746,-2.1745,0,-2.1509,-2.1542,-2.1566,-2.1576,-2.1603,-2.1614,-2.1626,-2.1645,-2.1658,-2.1677,-2.1685,-2.1706,-2.1718,-2.1734,-2.1747,-2.1741,-2.1775,-2.177,-2.1782,-2.1781,-2.1788,-2.1787,-2.1814,-2.1796,-2.1796,-2.1796,-2.1795,0,-2.1528,-2.1547,-2.1569,-2.1583,-2.1605,-2.1619,-2.164,-2.1652,-2.167,-2.1686,-2.1695,-2.1711,-2.1727,-2.1744,-2.1754,-2.1778,-2.1783,-2.1789,-2.1791,-2.1788,-2.1787,-2.1795,-2.1793,-2.1796,-2.1796,-2.1796,-2.1796,0,-2.1538,-2.1553,-2.158,-2.1604,-2.1611,-2.1626,-2.1646,-2.1661,-2.1673,-2.1694,-2.17,-2.1719,-2.1741,-2.1755,-2.1783,-2.1789,-2.1814,-2.1817,-2.1808,-2.1809,-2.1819,-2.1818,-2.1852,-2.1857,-2.1835,-2.1836,-2.1836,0,-2.1549,-2.1564,-2.1591,-2.1603,-2.1615,-2.1635,-2.1648,-2.1663,-2.1676,-2.1701,-2.1712,-2.1735,-2.1753,-2.1787,-2.1803,-2.1825,-2.1827,-2.1838,-2.1831,-2.1827,-2.1827,-2.1826,-2.1828,-2.1839,-2.1839,-2.1839,-2.1839,0,-2.1568,-2.1575,-2.1594,-2.1616,-2.1632,-2.165,-2.1669,-2.1678,-2.1696,-2.1711,-2.1734,-2.1748,-2.1777,-2.1799,-2.1822,-2.1834,-2.184,-2.1841,-2.1845,-2.1841,-2.1836,-2.1839,-2.181,-2.184,-2.184,-2.184,-2.184,-2.184,-2.1578,-2.1592,-2.1613,-2.1635,-2.165,-2.1667,-2.1682,-2.1697,-2.1716,-2.174,-2.1748,-2.1772,-2.1792,-2.1824,-2.1837,-2.1855,-2.1854,-2.186,-2.1861,-2.1862,-2.1862,-2.1833,-2.186,-2.186,-2.186,-2.186,-2.186,0,-2.1597,-2.1611,-2.1631,-2.1656,-2.1673,-2.1678,-2.1698,-2.1712,-2.1733,-2.1752,-2.177,-2.1797,-2.1819,-2.1837,-2.186,-2.1871,-2.1874,-2.1877,-2.1876,-2.1879,-2.1862,-2.1856,-2.1874,-2.1874,-2.1874,-2.1874,-2.1874,-2.1874,-2.1608,-2.1632,-2.1642,-2.1674,-2.1688,-2.1712,-2.1723,-2.1739,-2.1754,-2.1783,-2.1802,-2.1814,-2.1833,-2.1857,-2.1878,-2.1883,-2.1891,-2.1892,-2.1898,-2.1881,-2.188,-2.1878,-2.1873,-2.1894,-2.1894,-2.1913,-2.1913,-2.1914]}]]